[[{"header":{"parameterUnit":"m.s-1","parameterCategory":1,"la1":30.2991,"la2":30.254,"lo1":-89.0895,"lo2":-89.0444,"dy":0.0017,"dx":0.0017,"nx":28,"ny":28,"refTime":"2024-03-14T21:00:00:Z","depth":0,"parameterNumber":2,"parameterNumberName":"U-component_of_WINDS"},"data":[0,0,0,0,0,0,0,0,0,0,0,0,0,0,0,0,0,0,0,0,0,0,0,0,0,0,0,0,0,0,0,0,0,0,0,0,0,0,0,0,0,0,0,0,0,0,0,0,0,0,0,0,0,0,0,0,0,0,0.994,0.9942,0,1.0135,1.0137,1.014,1.0167,1.0165,1.0163,1.0161,1.0369,1.0376,1.0383,0,0,0,0,0,0,0,0,0,0,0,0,0,0.9599,0.9605,0.994,0.9942,0.9945,1.0135,1.0138,1.014,1.0167,1.0165,1.0163,1.016,1.0366,1.0375,1.0383,0,0,0,0,0,0,0,0,0,0,0,0,0,0.9766,0.9607,0.9939,0.9981,0.9986,1.0134,1.0138,1.0141,1.0168,1.0165,1.0162,1.0159,1.0363,1.0374,1.0385,1.0507,0,0,1.0418,1.0423,0,0,0,0,0,0,0,0,0.9757,0.9779,0.9972,0.9978,0.9985,1.0124,1.0094,1.0264,1.0168,1.0099,1.0161,1.0158,1.029,1.0307,1.035,1.0517,1.0526,1.0419,1.0425,1.043,1.0433,0,0,0,0,0,0,0,0.9745,0.9771,1.0017,0.9975,0.9983,0.9993,1.0013,1.0126,1.0208,1.0105,1.0107,1.013,1.0293,1.0339,1.0355,1.0529,1.0418,1.0428,1.0435,1.0439,1.0813,1.0816,0,0,0,0,0,0,0.9725,0.9761,1.0011,1.0023,0.9861,1.0001,1.0024,1.0082,1.0207,1.0223,1.0132,1.013,1.0322,1.0342,1.0362,1.0518,1.043,1.044,1.0446,1.0809,1.0814,1.0817,0,0,0,0,0,0,0.9717,0.9747,1.0003,0.9893,0.9926,1.001,1.0075,1.0087,1.0133,1.0227,1.0242,1.0163,1.032,1.0347,1.0472,1.0525,1.0445,1.0455,1.0805,1.0811,1.0815,1.0828,0,0,0,0,0,0,0.9707,0.9744,0.9789,0.9893,0.9932,1.0107,1.0078,1.0093,1.0151,1.0151,1.0261,1.0276,1.032,1.0455,1.0482,1.0539,1.0463,1.0801,1.0808,1.0814,1.0823,1.0833,1.0841,0,0,0,0,0,0.9695,0.9785,0.9791,0.9821,0.9989,1.0109,1.0132,1.0179,1.0155,1.0203,1.0264,1.0273,1.0514,1.0468,1.0499,1.0559,1.0798,1.0806,1.0813,1.0819,1.0831,1.0841,0,0,0,0,0,0,0.9686,0.9799,0.9807,0.9933,1.0011,1.0114,1.0175,1.0189,1.0277,1.0274,1.033,1.0355,1.0478,1.0531,1.0477,1.0687,1.0655,1.0669,1.0648,1.066,1.0669,1.0655,1.0472,0,0,0,0,0,0.9698,0.9784,0.9879,0.9981,1.002,1.0091,1.0145,1.0174,1.0259,1.0293,1.0362,1.0446,1.0542,1.0604,1.0696,1.083,1.0857,1.0887,1.0896,1.0903,1.0916,1.0996,1.1012,1.0842,1.0842,1.0842,0,0,0.9725,0.9797,0.9848,0.9981,1.0045,1.0136,1.0118,1.0214,1.0284,1.0308,1.0431,1.0485,1.0583,1.0714,1.0776,1.0762,1.0969,1.0913,1.0918,1.0927,1.1006,1.1022,1.1036,1.0848,1.0847,1.0846,0,0,0.9821,0.9882,0.9976,1.0041,1.0139,1.0186,1.0208,1.031,1.0347,1.047,1.0492,1.0577,1.0738,1.0809,1.0865,1.0992,1.1006,1.1021,1.1069,1.1146,1.116,1.1172,1.1222,1.1239,1.1032,1.1032,1.1033,0,0.9843,0.9978,1.0023,1.012,1.018,1.0204,1.0303,1.0364,1.0488,1.053,1.0512,1.0719,1.0786,1.0937,1.0968,1.1011,1.1043,1.101,1.1154,1.1166,1.1179,1.1227,1.1245,1.1034,1.1034,1.1034,1.1034,0,1.0003,1.0097,1.0162,1.0279,1.0346,1.0443,1.0506,1.0569,1.0594,1.0644,1.0773,1.0854,1.0966,1.1004,1.1028,1.116,1.1149,1.1141,1.1111,1.1196,1.1242,1.1261,1.1036,1.1036,1.1035,1.1035,0,0,1.0099,1.0242,1.0265,1.0321,1.0431,1.0507,1.0606,1.0714,1.077,1.0854,1.0943,1.1081,1.1076,1.1141,1.1174,1.1241,1.1343,1.1227,1.123,1.1249,1.1499,1.1506,1.1526,1.1351,1.1355,1.1357,1.1492,0,1.0211,1.0387,1.0433,1.0584,1.0675,1.0701,1.0789,1.0868,1.0919,1.1005,1.1062,1.116,1.1144,1.1184,1.1252,1.1316,1.1394,1.1306,1.1439,1.1443,1.1417,1.155,1.1557,1.168,1.151,1.1513,1.1515,0,1.0366,1.0454,1.0614,1.0717,1.0756,1.0834,1.0939,1.102,1.1112,1.1145,1.1218,1.1246,1.1356,1.1317,1.1472,1.1411,1.1468,1.1508,1.1514,1.1531,1.1486,1.1575,1.172,1.174,1.1543,1.1541,1.1539,0,1.0425,1.0584,1.0701,1.0748,1.0869,1.0924,1.0978,1.1067,1.113,1.1223,1.1266,1.137,1.1428,1.151,1.1567,1.1533,1.1719,1.1684,1.1754,1.1753,1.1794,1.1791,1.1954,1.1824,1.1824,1.1823,1.1823,0,1.0548,1.0647,1.073,1.0803,1.0916,1.0968,1.1079,1.1134,1.1214,1.1301,1.133,1.1412,1.148,1.1572,1.1617,1.1742,1.1767,1.18,1.1811,1.1799,1.1796,1.184,1.1834,1.1828,1.1827,1.1826,1.1825,0,1.0635,1.0694,1.0825,1.0929,1.0958,1.1037,1.1128,1.1203,1.1254,1.1364,1.1393,1.1475,1.1586,1.165,1.1789,1.182,1.196,1.1965,1.1928,1.1934,1.2002,1.1996,1.2202,1.2234,1.2078,1.2079,1.2081,0,1.0711,1.0787,1.09,1.096,1.1014,1.1109,1.1174,1.123,1.1297,1.141,1.1472,1.1584,1.1676,1.1853,1.1927,1.2036,1.2047,1.2111,1.2063,1.2051,1.2053,1.205,1.206,1.2121,1.2122,1.2123,1.2124,0,1.0842,1.0868,1.0959,1.1062,1.1138,1.1223,1.1306,1.1354,1.1425,1.15,1.1612,1.1684,1.1827,1.194,1.2055,1.2114,1.2134,1.2138,1.2161,1.2152,1.2129,1.2147,1.1955,1.2134,1.2133,1.2132,1.2132,1.2131,1.0929,1.1,1.1091,1.1193,1.1262,1.134,1.1416,1.1477,1.1571,1.1691,1.1719,1.1839,1.1934,1.209,1.2153,1.225,1.2239,1.2271,1.228,1.2288,1.2292,1.211,1.2271,1.227,1.227,1.227,1.227,0,1.1065,1.1125,1.1218,1.1335,1.1417,1.1424,1.1518,1.1587,1.1691,1.1777,1.1868,1.2,1.2111,1.2194,1.2308,1.2371,1.2383,1.2399,1.2397,1.2412,1.2293,1.2264,1.2388,1.2388,1.2388,1.2388,1.2388,1.2388,1.1146,1.1268,1.1305,1.1463,1.1524,1.164,1.1694,1.1768,1.1838,1.1983,1.2074,1.2127,1.2214,1.2335,1.2438,1.2461,1.2503,1.2519,1.2544,1.2432,1.2419,1.2407,1.2381,1.2527,1.2527,1.2655,1.2656,1.2657]},{"header":{"parameterUnit":"m.s-1","parameterCategory":1,"la1":30.2991,"la2":30.254,"lo1":-89.0895,"lo2":-89.0444,"dy":0.0017,"dx":0.0017,"nx":28,"ny":28,"refTime":"2024-03-14T21:00:00:Z","depth":0,"parameterNumber":3,"parameterNumberName":"V-component_of_WINDS"},"data":[0,0,0,0,0,0,0,0,0,0,0,0,0,0,0,0,0,0,0,0,0,0,0,0,0,0,0,0,0,0,0,0,0,0,0,0,0,0,0,0,0,0,0,0,0,0,0,0,0,0,0,0,0,0,0,0,0,0,-3.6079,-3.6077,0,-3.5937,-3.5936,-3.5934,-3.5888,-3.5889,-3.5889,-3.589,-3.5734,-3.5729,-3.5724,0,0,0,0,0,0,0,0,0,0,0,0,0,-3.6298,-3.6294,-3.6079,-3.6077,-3.6075,-3.5937,-3.5935,-3.5934,-3.5888,-3.5889,-3.5889,-3.589,-3.5735,-3.573,-3.5724,0,0,0,0,0,0,0,0,0,0,0,0,0,-3.6184,-3.6293,-3.6079,-3.6036,-3.6031,-3.5938,-3.5935,-3.5933,-3.5888,-3.5889,-3.589,-3.5891,-3.5737,-3.573,-3.5723,-3.5659,0,0,-3.5701,-3.5698,0,0,0,0,0,0,0,0,-3.619,-3.6176,-3.6044,-3.6039,-3.6033,-3.5932,-3.5955,-3.5841,-3.5887,-3.5942,-3.589,-3.5891,-3.5798,-3.5786,-3.5757,-3.5652,-3.5645,-3.5701,-3.5696,-3.5693,-3.5691,0,0,0,0,0,0,0,-3.6198,-3.6181,-3.6022,-3.6042,-3.6035,-3.602,-3.6005,-3.5933,-3.5865,-3.5937,-3.5933,-3.5918,-3.5795,-3.5764,-3.5753,-3.5643,-3.5701,-3.5694,-3.569,-3.5687,-3.5474,-3.5473,0,0,0,0,0,0,-3.6215,-3.6188,-3.6027,-3.6018,-3.6116,-3.6015,-3.5998,-3.5963,-3.5866,-3.5853,-3.5917,-3.5916,-3.5776,-3.5761,-3.5747,-3.5663,-3.5693,-3.5686,-3.5682,-3.5476,-3.5474,-3.5473,0,0,0,0,0,0,-3.622,-3.6201,-3.6033,-3.6102,-3.608,-3.6011,-3.5971,-3.5959,-3.5928,-3.5852,-3.5838,-3.5899,-3.5776,-3.5757,-3.5681,-3.5657,-3.5683,-3.5677,-3.5477,-3.5475,-3.5473,-3.5497,0,0,0,0,0,0,-3.6226,-3.6203,-3.6181,-3.6102,-3.6076,-3.5973,-3.5969,-3.5956,-3.5918,-3.5915,-3.583,-3.5817,-3.5775,-3.5692,-3.5674,-3.5648,-3.5671,-3.5479,-3.5476,-3.5474,-3.5497,-3.5496,-3.5494,0,0,0,0,0,-3.6234,-3.6191,-3.618,-3.6161,-3.6048,-3.5972,-3.5956,-3.5912,-3.5916,-3.5891,-3.5841,-3.582,-3.5664,-3.5685,-3.5664,-3.5635,-3.548,-3.5477,-3.5474,-3.5498,-3.5496,-3.5494,0,0,0,0,0,0,-3.6265,-3.618,-3.6167,-3.6098,-3.6043,-3.5964,-3.5931,-3.5911,-3.5851,-3.585,-3.5795,-3.5776,-3.5703,-3.5662,-3.5687,-3.5566,-3.557,-3.5563,-3.5596,-3.5593,-3.5591,-3.5601,-3.5665,0,0,0,0,0,-3.6264,-3.6214,-3.6141,-3.6086,-3.606,-3.6001,-3.5966,-3.5937,-3.5876,-3.5851,-3.5796,-3.5734,-3.5671,-3.563,-3.5568,-3.5492,-3.5471,-3.5462,-3.546,-3.5459,-3.5452,-3.5405,-3.5399,-3.5463,-3.5463,-3.5463,0,0,-3.6261,-3.6208,-3.6179,-3.6091,-3.6045,-3.599,-3.5981,-3.5923,-3.588,-3.5841,-3.5766,-3.5724,-3.5651,-3.5575,-3.5538,-3.5538,-3.543,-3.5455,-3.5455,-3.5448,-3.5401,-3.5396,-3.539,-3.546,-3.5461,-3.5461,0,0,-3.6226,-3.6183,-3.6132,-3.6087,-3.6018,-3.5979,-3.5967,-3.5892,-3.5863,-3.5788,-3.5757,-3.5703,-3.5596,-3.5545,-3.5505,-3.5451,-3.5427,-3.5432,-3.5421,-3.5376,-3.5371,-3.5366,-3.5343,-3.5336,-3.5426,-3.5426,-3.5426,0,-3.6229,-3.6148,-3.6107,-3.6051,-3.6012,-3.5978,-3.5923,-3.588,-3.5793,-3.5765,-3.5767,-3.5631,-3.558,-3.549,-3.5477,-3.5447,-3.5427,-3.544,-3.5376,-3.537,-3.5365,-3.5342,-3.5334,-3.5427,-3.5427,-3.5427,-3.5427,0,-3.6154,-3.6098,-3.6064,-3.5985,-3.5942,-3.5887,-3.5834,-3.5794,-3.5769,-3.5729,-3.5651,-3.5589,-3.5512,-3.5489,-3.5463,-3.5393,-3.5395,-3.5388,-3.539,-3.5361,-3.5338,-3.5329,-3.5428,-3.5428,-3.5427,-3.5427,0,0,-3.6132,-3.6032,-3.602,-3.5983,-3.5905,-3.5859,-3.58,-3.5729,-3.5695,-3.5636,-3.5583,-3.5493,-3.5486,-3.544,-3.5408,-3.5369,-3.5325,-3.5365,-3.5362,-3.5356,-3.524,-3.5244,-3.5235,-3.5311,-3.5309,-3.5308,-3.5245,0,-3.6084,-3.5983,-3.5944,-3.5859,-3.5805,-3.5772,-3.5721,-3.5665,-3.5626,-3.5571,-3.5525,-3.5462,-3.5458,-3.543,-3.5391,-3.5339,-3.53,-3.5344,-3.5256,-3.5253,-3.5272,-3.5224,-3.5228,-3.5172,-3.5237,-3.5235,-3.5234,0,-3.6015,-3.5959,-3.587,-3.5798,-3.5773,-3.5728,-3.5658,-3.5608,-3.5543,-3.5516,-3.5466,-3.5436,-3.5369,-3.5379,-3.5283,-3.5314,-3.5275,-3.5244,-3.5241,-3.5228,-3.5239,-3.5205,-3.5153,-3.5143,-3.522,-3.5222,-3.5223,0,-3.6003,-3.5906,-3.5839,-3.5809,-3.5724,-3.5692,-3.5654,-3.5591,-3.555,-3.5488,-3.546,-3.539,-3.535,-3.5295,-3.5245,-3.5257,-3.5152,-3.5159,-3.5124,-3.5125,-3.51,-3.5102,-3.5037,-3.5083,-3.5083,-3.5083,-3.5083,0,-3.5952,-3.5898,-3.5833,-3.5791,-3.5728,-3.5683,-3.5621,-3.558,-3.5524,-3.547,-3.5438,-3.5387,-3.5327,-3.5267,-3.5228,-3.5152,-3.5136,-3.5109,-3.5098,-3.5109,-3.5112,-3.508,-3.5081,-3.5081,-3.5081,-3.5082,-3.5082,0,-3.5927,-3.5883,-3.5807,-3.5734,-3.5714,-3.567,-3.5605,-3.5561,-3.5521,-3.5454,-3.5435,-3.537,-3.5299,-3.5245,-3.5151,-3.5125,-3.5043,-3.5034,-3.5066,-3.5059,-3.5027,-3.5029,-3.4936,-3.4919,-3.498,-3.498,-3.498,0,-3.5896,-3.5854,-3.5777,-3.5741,-3.5704,-3.5647,-3.5605,-3.5559,-3.5516,-3.5438,-3.5403,-3.533,-3.5269,-3.5155,-3.5097,-3.5024,-3.501,-3.4983,-3.4998,-3.501,-3.5004,-3.5006,-3.4999,-3.4979,-3.4979,-3.4979,-3.4978,0,-3.5844,-3.5824,-3.5768,-3.5703,-3.5656,-3.5602,-3.5547,-3.5518,-3.546,-3.5414,-3.5342,-3.5295,-3.5201,-3.5127,-3.5049,-3.5004,-3.4979,-3.4975,-3.4962,-3.4971,-3.4989,-3.4975,-3.5055,-3.4976,-3.4976,-3.4976,-3.4976,-3.4976,-3.5811,-3.5772,-3.5711,-3.5649,-3.5604,-3.5553,-3.5508,-3.5463,-3.5404,-3.5326,-3.5301,-3.5226,-3.5159,-3.5052,-3.5007,-3.4944,-3.4943,-3.4926,-3.4921,-3.4916,-3.4915,-3.5004,-3.493,-3.493,-3.493,-3.493,-3.493,0,-3.5754,-3.5714,-3.5658,-3.5583,-3.5533,-3.5521,-3.5458,-3.5416,-3.5352,-3.5293,-3.5235,-3.515,-3.5079,-3.5015,-3.494,-3.4901,-3.4887,-3.4882,-3.4882,-3.4871,-3.4922,-3.4939,-3.4894,-3.4894,-3.4894,-3.4894,-3.4894,-3.4894,-3.5718,-3.5649,-3.5622,-3.5528,-3.5487,-3.5416,-3.5382,-3.5333,-3.5286,-3.5195,-3.5136,-3.5098,-3.5035,-3.4955,-3.4886,-3.4869,-3.484,-3.4837,-3.4816,-3.4864,-3.4868,-3.4872,-3.4887,-3.4833,-3.4833,-3.477,-3.4769,-3.4769]}]]